Location: Castifao
(42.5040°N, 9.1124°E)
Time: 04:42:45
(UTC+00:00)

SL-8 R/B - Pass Details

Date: 23 January 2020
Orbit: 656 x 668 km, 48.4° (Epoch: 16 February)

Event Time Altitude Azimuth Distance (km) Brightness Sun altitude
Rises 17:19:24 0° 235° (SW) 2,991 8.7 -10.2°
Reaches altitude 10° 17:21:45 10° 234° (SW) 2,079 7.5 -10.6°
Maximum altitude 17:26:33 74° 149° (SSE) 690 3.7 -11.4°
Enters shadow 17:30:13 17° 67° (ENE) 1,660 5.1 -12.1°
